Weather in Cox's Bazar

Bangladesh     21°25′57″N   91°59′50″E
temp.,
°C
wind,
m/s
gust,
m/s
humid.,
%
clouds,
%
prec.,
mm/h
press.,
hPa
HPBL,
m
8 march, mon
mon800:00+20e23978 0.0 101456
03:00+20ene23968 0.0 101349
06:00+19e23956 0.0 101448
09:00+27ssw11637 0.0 1016460
12:00+29wsw54554 0.0 1014769
15:00+29wsw545515 0.0 1011636
18:00+24w33858 0.0 101195
21:00+22nw11900 0.0 101451
9 march, tue
tue900:00+21ene23920 0.0 101341
03:00+19e33920 0.0 101252
06:00+19nne11842 0.0 101333
09:00+28ene01530 0.0 1016377
12:00+32wsw543923 0.0 1014985
15:00+31w664117 0.0 1011632
18:00+24wnw35799 0.0 1012123
21:00+22nw11900 0.0 101445
10 march, wed
wed1000:00+20e33930 0.0 101343
03:00+19ese22840 0.0 101237
06:00+18ene22740 0.0 101335
09:00+29s11420 0.0 1015385
12:00+32wsw54350 0.0 1013811
15:00+30w66480 0.0 1011606
18:00+24w33810 0.0 101187
21:00+22ene11900 0.0 101323
11 march, thu
thu1100:00+20ese33900 0.0 101353
03:00+19e22790 0.0 101234
06:00+18ene22680 0.0 101334
09:00+29nnw11310 0.0 1015330
12:00+33w64310 0.0 1014822
15:00+31w66400 0.0 1011587
18:00+24wnw35820 0.0 1012108
21:00+22ene11910 0.0 101431
12 march, fri
fri1200:00+20e23900 0.0 101439
03:00+19ne22760 0.0 101234
06:00+18ene12640 0.0 101434
09:00+29nw22310 0.0 1016393
12:00+33wnw65320 0.0 1014808
15:00+31wnw66390 0.0 1012588
18:00+25wnw33760 0.0 101269
21:00+22n11860 0.0 101423